This demonstration page uses our WeatherBlox Daily Observations layout. Learn more.

Left ArrowRight Arrow

Hourly Observations for January 3, 2016

Temp ( °F °C ) Dew Point ( °F °C ) Humidity (%) Winds ( mph kmh ) Pressure ( in mb ) Visibility ( mi km ) Precip ( " mm )
12:59 am 00:59 Clear 41 5 30 -1.1 65 65 SSW 8 13 30.05 1018 10 16 0.00 0.00
1:59 am 01:59 Clear 43 6.1 30 -1.1 60 60 SW 10 17 30.05 1018 10 16 0.00 0.00
2:59 am 02:59 Clear 43 6.1 30 -1.1 60 60 SW 12 19 30.03 1017 10 16 0.00 0.00
3:59 am 03:59 Mostly Clear 41 5 30 -1.1 65 65 SSW 8 13 30.02 1017 10 16 0.00 0.00
4:59 am 04:59 Clear 41 5 30 -1.1 65 65 SW 12 19 30.01 1016 10 16 0.00 0.00
5:59 am 05:59 Clear 40 4.4 30 -1.1 68 68 SW 9 15 30.00 1016 10 16 0.00 0.00
6:59 am 06:59 Clear 40 4.4 29 -1.7 65 65 SW 9 15 29.99 1016 10 16 0.00 0.00
7:59 am 07:59 Mostly Cloudy 39 3.9 29 -1.7 67 67 SW 10 17 30.00 1016 9 14 0.00 0.00
8:59 am 08:59 Mostly Cloudy 41 5 28 -2.2 60 60 WSW 13 20 30.01 1016 10 16 0.00 0.00
9:59 am 09:59 Mostly Cloudy 45 7.2 27 -2.8 49 49 WSW 15 24 29.98 1015 10 16 0.00 0.00
10:59 am 10:59 Mostly Cloudy 48 8.9 27 -2.8 44 44 W 12 19 29.96 1015 7 11 0.00 0.00
11:59 am 11:59 Partly Cloudy 48 8.9 27 -2.8 44 44 W 13 20 29.93 1014 10 16 0.00 0.00
12:59 pm 12:59 Partly Cloudy 50 10 28 -2.2 43 43 WSW 8 13 29.90 1013 7 11 0.00 0.00
1:59 pm 13:59 Mostly Cloudy 49 9.4 26 -3.3 41 41 W 9 15 29.88 1012 10 16 0.00 0.00
2:59 pm 14:59 Mostly Cloudy 49 9.4 27 -2.8 43 43 WSW 7 11 29.88 1012 10 16 0.00 0.00
3:59 pm 15:59 Mostly Cloudy 49 9.4 26 -3.3 41 41 W 9 15 29.88 1012 10 16 0.00 0.00
4:59 pm 16:59 Mostly Cloudy 47 8.3 27 -2.8 46 46 WSW 7 11 29.90 1012 10 16 0.00 0.00
5:59 pm 17:59 Mostly Cloudy 45 7.2 28 -2.2 52 52 WSW 3 6 29.90 1013 10 16 0.00 0.00
6:59 pm 18:59 Mostly Cloudy 42 5.6 31 -0.6 65 65 Calm 29.91 1013 10 16 0.00 0.00
7:59 pm 19:59 Mostly Cloudy 43 6.1 32 0 65 65 W 3 6 29.93 1013 10 16 0.00 0.00
8:59 pm 20:59 Mostly Cloudy 43 6.1 30 -1.1 60 60 SW 6 9 29.93 1014 10 16 0.00 0.00
9:59 pm 21:59 Mostly Cloudy 41 5 31 -0.6 67 67 Calm 29.92 1013 10 16 0.00 0.00
10:59 pm 22:59 Mostly Cloudy 42 5.6 32 0 68 68 WSW 5 7 29.92 1013 10 16 0.00 0.00
11:25 pm 23:25 Mostly Cloudy 45 7.2 36 2.2 71 71 NNE 18 30 29.94 1014 10 16 0.00 0.00
11:59 pm 23:59 Partly Cloudy 44 6.7 33 0.6 65 65 NNE 20 31 29.96 1014 10 16 0.00 0.00

Powered by AerisWeather